COSMOS 1134

Satellite information

Favourite Embed

Satellite Type and Status

PAYLOADIN ORBIT

Key statistics

Satellite COSMOS 1134 at a glance.

Uptime

16722

Days in orbit

Revolutions

≈ 12.5

Per day

Orbit

LEO

Low Earth Orbit

Inclination

74.0

Latest

Satellite identification and parameters

Extended collection of information and parameters for COSMOS 1134.

Object identification

Identified? True

Debris? False

Object name: COSMOS 1134

International designator: 1979-084E

Object number (NORAD): 11542

Object ID (CCSDS): 11542

Country: COMMONWEALTH OF INDEPENDENT STATES (CIS)

Current information (Y/N): Y

RCS size: MEDIUM

Orbital parameters

Period: 115.285 minutes

Inclination: 74.025 deg

SMA: 7846.512 km

Apoapsis: 1483.668 km

Periapsis: 1453.085 km

RAAN: 103.8917 deg

Eccentricy: 0.0019488

Argument of periapsis: 263.8977 deg

Mean anomaly: 170.224 deg

Mean motion: 12.49073011 rev/day

Mean motion (dot): -0.00000031 rev/day2

B* drag term: -0.00010338 1/REarth

Two-line elements (TLE)

Creation date: July 6, 2025, 10:26 p.m.

Reference frame: TEME

Reference center: EARTH

Epoch: July 6, 2025, 8:54 p.m. UTC

TLE line 0: 0 COSMOS 1134

TLE line 1: 1 11542U 79084E 25187.87088795 -.00000031 00000-0 -10338-3 0 9990

TLE line 2: 2 11542 74.0250 103.8917 0019488 263.8977 170.2240 12.49073011 87676

Live tracking on map

Real-time ground track for satellite COSMOS 1134.

In-orbit conjunctions

There are no conjunctions computed for COSMOS 1134, at the moment. Check back to stay up to date, as we update our databases every day.

Go to all conjunctions

Associated space launch

Biological research satellite carrying live organisms

COSMOS 1134 was lifted into orbit during the mission ‘Soyuz U | Bion 5’, on board a Soyuz U space rocket.

The launch took place on Sept. 25, 1979, 3:30 p.m. from 41/1.

For more information about the launch, click the button.

Launch to space Soyuz U | Bion 5
Soyuz U | Bion 5

Agency: N/A

Status: Launch Successful

Launch date: Sept. 25, 1979, 3:30 p.m. UTC

Rocket: Soyuz U

Launch pad: 41/1

Location: Plesetsk Cosmodrome, Russian Federation

...

Latest news about this satellite

There are no fresh news available about this satellite. Check back as we update our databases every day.


Newsletter sign-up

Weekly statistics, charts and insights to help you stay on top of the space industry.